Regional Weather Roundup
Issued by NWS

Home | Current Version | Previous Version | Text Only | Print | Product List | Glossary On
Versions: 1 2 3 4 5 6 7 8 9 10 11 12 13 14 15 16 17 18 19 20 21 22 23 24 25 26 27 28 29 30 31 32 33 34 35 36 37 38 39 40 41 42 43 44 45 46 47 48 49 50
000
ASUS43 KMKX 230500
RWRWI

WISCONSIN REGIONAL WEATHER ROUNDUP
NATIONAL WEATHER SERVICE MILWAUKEE/SULLIVAN WI
1200 AM CDT WED JUL 23 2014

NOTE: "FAIR" INDICATES FEW OR NO CLOUDS BELOW 12,000 FEET WITH NO
SIGNIFICANT WEATHER AND/OR OBSTRUCTIONS TO VISIBILITY.

WIZ001-002-006>008-014>016-023>028-230600-
NORTHWEST WISCONSIN

CITY           SKY/WX    TMP DP  RH WIND       PRES   REMARKS
SUPERIOR ARPT  CLEAR     55  54  96 W3        30.16R
ASHLAND        CLEAR     56  55  97 SW3       30.15R
HAYWARD        PTCLDY    57  56  96 CALM      30.17R
SIREN          CLEAR     61  58  88 CALM      30.17R
RICE LAKE      CLEAR     64  58  82 NW3       30.16R
LADYSMITH      CLEAR     63  59  86 N5        30.16R
EAU CLAIRE     NOT AVBL
MENOMONIE      CLEAR     67  61  79 NW6       30.13R
NEW RICHMOND   CLEAR     64  58  79 N3        30.16R
OSCEOLA        MOCLDY    67  58  73 CALM      30.18R
$$

WIZ003>005-009-010-017-018-230600-
NORTH CENTRAL WISCONSIN

CITY           SKY/WX    TMP DP  RH WIND       PRES   REMARKS
WOODRUFF       CLEAR     57  53  87 CALM      30.15R FOG
RHINELANDER    CLEAR     58  56  93 CALM      30.15R
EAGLE RIVER    CLEAR     54  54 100 CALM      30.13S
LAND O LAKES   CLEAR     52  51  98 CALM      30.15S
PHILLIPS       CLEAR     60  57  90 N3        30.14S
TOMAHAWK       PTCLDY    57  54  92 CALM      30.14S
MEDFORD        CLEAR     60  57  89 N6        30.13S
MERRILL        PTCLDY    59  58  96 N5        30.12S
$$

WIZ029-030-035-036-043>047-230600-
CENTRAL WISCONSIN

CITY           SKY/WX    TMP DP  RH WIND       PRES   REMARKS
WAUSAU         PTCLDY    64  58  80 N8        30.11R
MOSINEE        PTCLDY    63  59  88 N9        30.12R
MARSHFIELD     CLEAR     65  57  75 N9        30.12R
STEVENS POINT  PTCLDY    63  57  82 N8        30.11R
WAUPACA        PTCLDY    68  60  73 N6        30.09R
WAUTOMA        NOT AVBL
WISC RAPIDS    CLEAR     67  59  75 NE10      30.12R
CAMP DOUGLAS   NOT AVBL
$$

WIZ011>013-019>022-031-037>040-048>050-230600-
NORTHEAST WISCONSIN

CITY           SKY/WX    TMP DP  RH WIND       PRES   REMARKS
ANTIGO         CLEAR     58  57  94 N7        30.13R
STURGEON BAY   CLEAR     64  54  68 N17       30.07R
GREEN BAY      CLEAR     65  56  72 N10       30.08R
MANITOWOC      NOT AVBL
APPLETON       CLEAR     64  55  72 N16G28    30.08R
CLINTONVILLE   CLEAR     64  57  77 N8        30.09R
OSHKOSH        CLEAR     69  58  67 N14G26    30.08R
$$

WIZ032>034-041-042-053>061-230600-
SOUTHWEST WISCONSIN

CITY           SKY/WX    TMP DP  RH WIND       PRES   REMARKS
LA CROSSE      CLEAR     71  63  75 N5        30.09R
SPARTA         CLEAR     70  60  69 NE7       30.10R
VIROQUA        FAIR      68  63  83 N7        30.09R
BOSCOBEL       PTCLDY    70  64  81 CALM      30.07R
PRAIRIE DU CHI CLEAR     73  62  68 NW3       30.06R
PLATTEVILLE    FAIR      72  66  82 N9        30.06R
$$

WIZ056-057-062-063-064-067-068-230600-
SOUTH CENTRAL WISCONSIN

CITY           SKY/WX    TMP DP  RH WIND       PRES   REMARKS
BARABOO/DELLS  PTCLDY    71  57  61 NE8       30.07R
LONE ROCK      NOT AVBL
WATERTOWN      CLEAR     73  64  73 N12       30.04R
MADISON        CLEAR     73  64  73 N14       30.05R
MIDDLETON      FAIR      73  63  68 N8        30.05R
MONROE         CLEAR     73  64  73 N12       30.04R
JANESVILLE     CLEAR     79  63  57 N7        30.01R HX  80
$$

WIZ051-052-058>065-066-070>072-230600-
SOUTHEAST WISCONSIN

CITY           SKY/WX    TMP DP  RH WIND       PRES   REMARKS
MILWAUKEE      CLOUDY    66  59  78 NE15G24   30.04R
WAUKESHA       MOCLDY    72  61  68 N8        30.04R
MILWAUKEE/TIMM CLOUDY    70  59  68 NE20G30   30.04R
RACINE         MOCLDY    69  63  81 NE17G24   30.05R
BURLINGTON     MOCLDY    74  65  74 N6        30.02R
KENOSHA        CLOUDY    74  64  71 NE17G30   30.03R
FOND DU LAC    PTCLDY    69  59  70 N14G23    30.08R
SHEBOYGAN      MOCLDY    68  59  73 NE12      30.06R
WEST BEND      MOCLDY    72  61  68 N8        30.04R
JUNEAU         CLEAR     71  60  68 N14       30.07R
$$

LSZ147-162-230600-
LAKE SUPERIOR

STATION/POSITION TIME  TEMP    WIND        PRES    WAVE
                       AIR SEA DIR/SP/G            HT/PER
                 (UTC) (F)     (DEG/KT/KT) (MB)    (FT/S)
W MID LAKE BUOY  0350   46 40  230/  6/  8 1020.1R   1/ 3
PORT WING        0440   60     180/  2/  3 1020.7R
SAXON HARBOR     0400             CALM     1020.0
$$

LMZ867-665-643>646-230600-
LAKE MICHIGAN

STATION/POSITION TIME  TEMP    WIND        PRES    WAVE
                       AIR SEA DIR/SP/G            HT/PER
                 (UTC) (F)     (DEG/KT/KT) (MB)    (FT/S)
N MID LAKE BUOY  0350   59 54  340/ 16/ 19 1016.3R   4/ 6
NORTHPORT PIER   0400   65     350/ 18/ 25 1017.6R
KEWAUNEE LAKESHO 0400   64      10/  9/ 17 1018.1R
SHEBOYGAN LAKESH 0400           40/ 21/ 22 1016.9R
PORT WASHINGTON  0413           30/ 19/ 25 1017.3R
ATWATER BUOY     0400   54     350/ 10     1016.8R
MILWAUKEE LAKESH 0400           20/ 17/ 21   N/A
S MID LAKE BUOY  0350   71 66  340/ 17/ 21 1013.9R   1/ 4
KENOSHA   LAKESH 0400   68      10/ 22/ 27   N/A
$$

TC  - TEMPERATURE IN CELSIUS
VSB - VISIBILITY IN STATUTE MILES
WCI - WIND CHILL INDEX
HX  - HEAT INDEX



USA.gov is the U.S. government's official web portal to all federal, state and local government web resources and services.